Location: Kervinic
(48.4279°N, 4.7373°W)
Time: 16:37:20
(UTC+00:00)

Spot 2 Rocket - Pass Details

Date: 09 April 2020
Orbit: 757 x 772 km, 98.6° (Epoch: 03 June)

Event Time Altitude Azimuth Distance (km) Brightness Sun altitude
Exits shadow 20:22:14 19° 117° (ESE) 1,764 4.7 -13.3°
Maximum altitude 20:25:10 35° 65° (ENE) 1,241 4.3 -13.7°
Drops below altitude 10° 20:29:46 10° 1° (N) 2,323 6.4 -14.3°
Sets 20:32:14 0° 353° (N) 3,252 7.3 -14.7°
